Location: Taipo
(41.0000°S, 175.9500°E)
Time: 02:18:36
(UTC+00:00)

Hubble Space Telescope - Visible Passes

Search period start: 21 June 2024 00:00
Search period end: 01 July 2024 00:00
Orbit: 510 x 514 km, 28.5° (Epoch: 20 June)

Date Brightness Start Highest point End Pass type
(mag) Time Alt. Az. Time Alt. Az. Time Alt. Az.
23 Jun 3.3 06:44:35 10° N 06:44:42 10° NNE 06:44:49 10° NNE visible
24 Jun 3.3 06:24:31 10° N 06:25:30 11° NNE 06:26:28 10° NNE visible
25 Jun 3.3 06:04:58 10° N 06:06:17 11° N 06:07:37 10° NNE visible
25 Jun 3.6 07:44:05 10° NNW 07:44:24 11° NNW 07:44:24 11° NNW visible
26 Jun 3.3 05:45:31 10° NNW 05:47:04 12° N 05:48:37 10° NNE visible
26 Jun 3.3 07:24:57 10° NNW 07:26:24 13° NNW 07:26:24 13° NNW visible
27 Jun 3.3 05:26:07 10° NNW 05:27:50 12° N 05:29:34 10° NNE visible
27 Jun 3.2 07:05:49 10° NNW 07:07:40 13° N 07:08:26 12° N visible
28 Jun 3.3 06:46:42 10° NNW 06:48:26 12° N 06:50:10 10° NNE visible
29 Jun 3.4 06:27:38 10° NNW 06:29:11 12° N 06:30:44 10° NNE visible
30 Jun 3.5 06:08:37 10° NNW 06:09:55 11° N 06:11:14 10° N visible
